,,,PA_Meas_PMT16A,,PR_Meas_QMR101_102,,RH_Meas_QMH101,,SR_Meas_QMS101,,TA_Meas_QMH101,,GenWind,,GenWind,
date,time,status,PA,status,PR,status,RH,status,SR,status,TA,status,DirAvg,status,SpdAvg,
2009-06-17, 00:00:04,VALID,1005.77,VALID,0,VALID,94.9262,VALID,0,VALID,24.1123,VALID,14,VALID,0,
2009-06-17, 00:01:04,VALID,1005.77,VALID,0,VALID,94.9567,VALID,0,VALID,24.1318,VALID,14,VALID,0,
2009-06-17, 00:02:04,VALID,1005.74,VALID,0,VALID,94.949,VALID,0,VALID,24.1513,VALID,14,VALID,0,
2009-06-17, 00:03:04,VALID,1005.76,VALID,0,VALID,94.949,VALID,0,VALID,24.1726,VALID,14,VALID,0,
2009-06-17, 00:04:04,VALID,1005.75,VALID,0,VALID,94.9567,VALID,0,VALID,24.1318,VALID,14,VALID,0.183594,
2009-06-17, 00:05:04,VALID,1005.79,VALID,0,VALID,94.949,VALID,0,VALID,24.1123,VALID,14,VALID,0.384375,
2009-06-17, 00:06:04,VALID,1005.77,VALID,0,VALID,94.9262,VALID,0,VALID,24.0734,VALID,14,VALID,0.435547,
2009-06-17, 00:07:04,VALID,1005.79,VALID,0,VALID,94.9185,VALID,0,VALID,24.0539,VALID,14,VALID,0.220703,
2009-06-17, 00:08:04,VALID,1005.76,VALID,0,VALID,94.9185,VALID,0,VALID,24.0539,VALID,14,VALID,0,
2009-06-17, 00:09:04,VALID,1005.78,VALID,0,VALID,94.9338,VALID,0,VALID,24.0557,VALID,14,VALID,0,
2009-06-17, 00:10:04,VALID,1005.8,VALID,0,VALID,94.9262,VALID,0,VALID,24.0345,VALID,14,VALID,0,
2009-06-17, 00:11:04,VALID,1005.8,VALID,0,VALID,94.9414,VALID,0,VALID,24.0326,VALID,14,VALID,0,
2009-06-17, 00:12:04,VALID,1005.8,VALID,0,VALID,94.9719,VALID,0,VALID,24.0734,VALID,14,VALID,0.235938,
2009-06-17, 00:13:04,VALID,1005.79,VALID,0,VALID,94.9643,VALID,0,VALID,24.0734,VALID,14,VALID,0.114453,
2009-06-17, 00:14:04,VALID,1005.79,VALID,0,VALID,94.9719,VALID,0,VALID,24.0929,VALID,14,VALID,0,
2009-06-17, 00:15:04,VALID,1005.77,VALID,0,VALID,94.9719,VALID,0,VALID,24.0929,VALID,14,VALID,0,
2009-06-17, 00:16:04,VALID,1005.75,VALID,0,VALID,94.9719,VALID,0,VALID,24.0734,VALID,14,VALID,0,
2009-06-17, 00:17:04,VALID,1005.74,VALID,0,VALID,94.9719,VALID,0,VALID,24.0734,VALID,14,VALID,0,
2009-06-17, 00:18:04,VALID,1005.72,VALID,0,VALID,94.9643,VALID,0,VALID,24.0326,VALID,14,VALID,0.307031,
2009-06-17, 00:19:04,VALID,1005.72,VALID,0,VALID,94.9414,VALID,0,VALID,24.015,VALID,14,VALID,0.377734,
2009-06-17, 00:20:04,VALID,1005.74,VALID,0,VALID,94.949,VALID,0,VALID,23.9955,VALID,14,VALID,0.396484,
2009-06-17, 00:21:04,VALID,1005.7,VALID,0,VALID,94.949,VALID,0,VALID,23.9742,VALID,14,VALID,0.317578,
2009-06-17, 00:22:04,VALID,1005.7,VALID,0,VALID,94.9567,VALID,0,VALID,23.9566,VALID,14,VALID,0.324219,
2009-06-17, 00:23:04,VALID,1005.67,VALID,0,VALID,94.949,VALID,0,VALID,23.9566,VALID,14,VALID,0.311719,
2009-06-17, 00:24:04,VALID,1005.67,VALID,0,VALID,94.949,VALID,0,VALID,23.9159,VALID,14,VALID,0.263672,
2009-06-17, 00:25:04,VALID,1005.65,VALID,0,VALID,94.9643,VALID,0,VALID,23.8964,VALID,14,VALID,0.282422,
2009-06-17, 00:26:04,VALID,1005.65,VALID,0,VALID,94.9643,VALID,0,VALID,23.9177,VALID,14,VALID,0.284766,
2009-06-17, 00:27:04,VALID,1005.67,VALID,0,VALID,94.9719,VALID,0,VALID,23.8982,VALID,14,VALID,0.323828,
2009-06-17, 00:28:04,VALID,1005.64,VALID,0,VALID,94.9796,VALID,0,VALID,23.8982,VALID,14,VALID,0.297266,
2009-06-17, 00:29:04,VALID,1005.64,VALID,0,VALID,94.9796,VALID,0,VALID,23.8787,VALID,14,VALID,0.412891,
2009-06-17, 00:30:04,VALID,1005.6,VALID,0,VALID,94.9796,VALID,0,VALID,23.8593,VALID,14,VALID,0.410937,
2009-06-17, 00:31:04,VALID,1005.62,VALID,0,VALID,94.9796,VALID,0,VALID,23.838,VALID,14,VALID,0.414844,
2009-06-17, 00:32:04,VALID,1005.59,VALID,0,VALID,94.9796,VALID,0,VALID,23.7991,VALID,14,VALID,0.477734,
2009-06-17, 00:33:04,VALID,1005.58,VALID,0,VALID,94.9796,VALID,0,VALID,23.7991,VALID,14,VALID,0.455078,
2009-06-17, 00:34:04,VALID,1005.59,VALID,0,VALID,94.9948,VALID,0,VALID,23.8009,VALID,14,VALID,0.521484,
2009-06-17, 00:35:04,VALID,1005.59,VALID,0,VALID,94.9872,VALID,0,VALID,23.8009,VALID,14,VALID,0.427344,
2009-06-17, 00:36:04,VALID,1005.57,VALID,0,VALID,95.0101,VALID,0,VALID,23.8009,VALID,14,VALID,0.408594,
2009-06-17, 00:37:04,VALID,1005.54,VALID,0,VALID,95.0101,VALID,0,VALID,23.8009,VALID,14,VALID,0.358203,
2009-06-17, 00:38:04,VALID,1005.55,VALID,0,VALID,95.0253,VALID,0,VALID,23.7991,VALID,14,VALID,0.312109,
2009-06-17, 00:39:04,VALID,1005.55,VALID,0,VALID,95.0253,VALID,0,VALID,23.8203,VALID,14,VALID,0.436719,
2009-06-17, 00:40:04,VALID,1005.54,VALID,0,VALID,95.0406,VALID,0,VALID,23.7796,VALID,14,VALID,0.520703,
2009-06-17, 00:41:04,VALID,1005.53,VALID,0,VALID,95.0253,VALID,0,VALID,23.7601,VALID,14,VALID,0.548828,
2009-06-17, 00:42:04,VALID,1005.52,VALID,0,VALID,95.0406,VALID,0,VALID,23.7619,VALID,14,VALID,0.607813,
2009-06-17, 00:43:04,VALID,1005.53,VALID,0,VALID,95.033,VALID,0,VALID,23.7425,VALID,14,VALID,0.6,
2009-06-17, 00:44:04,VALID,1005.48,VALID,0,VALID,95.0482,VALID,0,VALID,23.7212,VALID,14,VALID,0.598047,
2009-06-17, 00:45:04,VALID,1005.46,VALID,0,VALID,95.0635,VALID,0,VALID,23.7601,VALID,14,VALID,0.537109,
2009-06-17, 00:46:04,VALID,1005.44,VALID,0,VALID,95.0711,VALID,0,VALID,23.7601,VALID,14,VALID,0.537109,
2009-06-17, 00:47:04,VALID,1005.42,VALID,0,VALID,95.1016,VALID,0,VALID,23.8009,VALID,14,VALID,0.517187,
2009-06-17, 00:48:04,VALID,1005.43,VALID,0,VALID,95.094,VALID,0,VALID,23.8203,VALID,14,VALID,0.45,
2009-06-17, 00:49:04,VALID,1005.41,VALID,0,VALID,95.1169,VALID,0,VALID,23.8398,VALID,13,VALID,0.532422,
2009-06-17, 00:50:04,VALID,1005.38,VALID,0,VALID,95.1398,VALID,0,VALID,23.8398,VALID,10,VALID,0.569531,
2009-06-17, 00:51:04,VALID,1005.35,VALID,0,VALID,95.1321,VALID,0,VALID,23.8398,VALID,3,VALID,0.566406,
2009-06-17, 00:52:04,VALID,1005.33,VALID,0,VALID,95.1245,VALID,0,VALID,23.8398,VALID,2,VALID,0.665625,
2009-06-17, 00:53:04,VALID,1005.37,VALID,0,VALID,95.1169,VALID,0,VALID,23.8203,VALID,358,VALID,0.686719,
2009-06-17, 00:54:04,VALID,1005.37,VALID,0,VALID,95.1321,VALID,0,VALID,23.8203,VALID,352,VALID,0.569141,
2009-06-17, 00:55:04,VALID,1005.35,VALID,0,VALID,95.094,VALID,0,VALID,23.7814,VALID,352,VALID,0.595703,
2009-06-17, 00:56:04,VALID,1005.34,VALID,0,VALID,95.1245,VALID,0,VALID,23.8027,VALID,353,VALID,0.468359,
2009-06-17, 00:57:04,VALID,1005.34,VALID,0,VALID,95.1245,VALID,0.100563,VALID,23.7796,VALID,354,VALID,0.530469,
2009-06-17, 00:58:04,VALID,1005.34,VALID,0,VALID,95.1093,VALID,0,VALID,23.7796,VALID,353,VALID,0.477344,
2009-06-17, 00:59:04,VALID,1005.33,VALID,0,VALID,95.1245,VALID,0,VALID,23.8009,VALID,352,VALID,0.441406,
2009-06-17, 01:00:04,VALID,1005.31,VALID,0,VALID,95.1245,VALID,0,VALID,23.7407,VALID,347,VALID,0.535547,
2009-06-17, 01:01:04,VALID,1005.32,VALID,0,VALID,95.1016,VALID,0.100563,VALID,23.7,VALID,347,VALID,0.590625,
2009-06-17, 01:02:04,VALID,1005.33,VALID,0,VALID,95.1016,VALID,0,VALID,23.7017,VALID,347,VALID,0.557422,
2009-06-17, 01:03:04,VALID,1005.33,VALID,0,VALID,95.1245,VALID,0.100563,VALID,23.7,VALID,347,VALID,0.566797,
2009-06-17, 01:04:04,VALID,1005.36,VALID,0,VALID,95.1398,VALID,0,VALID,23.7212,VALID,347,VALID,0.444531,
2009-06-17, 01:05:04,VALID,1005.35,VALID,0,VALID,95.1169,VALID,0,VALID,23.7,VALID,347,VALID,0.462891,
2009-06-17, 01:06:04,VALID,1005.34,VALID,0,VALID,95.1398,VALID,0.100563,VALID,23.7407,VALID,347,VALID,0.535937,
2009-06-17, 01:07:04,VALID,1005.31,VALID,0,VALID,95.155,VALID,0,VALID,23.7583,VALID,348,VALID,0.448828,
2009-06-17, 01:08:04,VALID,1005.28,VALID,0,VALID,95.1627,VALID,0.100563,VALID,23.8185,VALID,348,VALID,0.413281,
2009-06-17, 01:09:04,VALID,1005.25,VALID,0,VALID,95.1474,VALID,0.100563,VALID,23.7796,VALID,348,VALID,0.401953,
2009-06-17, 01:10:04,VALID,1005.25,VALID,0,VALID,95.1627,VALID,0.100563,VALID,23.7583,VALID,348,VALID,0.446484,
2009-06-17, 01:11:04,VALID,1005.23,VALID,0,VALID,95.155,VALID,0,VALID,23.7407,VALID,348,VALID,0.450781,
2009-06-17, 01:12:04,VALID,1005.23,VALID,0,VALID,95.1627,VALID,0,VALID,23.7212,VALID,348,VALID,0.493359,
2009-06-17, 01:13:04,VALID,1005.22,VALID,0,VALID,95.1321,VALID,0.100563,VALID,23.7017,VALID,348,VALID,0.448047,
2009-06-17, 01:14:04,VALID,1005.16,VALID,0,VALID,95.1474,VALID,0.100563,VALID,23.6823,VALID,348,VALID,0.410937,
2009-06-17, 01:15:04,VALID,1005.18,VALID,0,VALID,95.1398,VALID,0.100563,VALID,23.6628,VALID,348,VALID,0.324609,
2009-06-17, 01:16:04,VALID,1005.15,VALID,0,VALID,95.1245,VALID,0,VALID,23.6434,VALID,348,VALID,0.323047,
2009-06-17, 01:17:04,VALID,1005.12,VALID,0,VALID,95.1245,VALID,0.100563,VALID,23.6434,VALID,348,VALID,0.273438,
2009-06-17, 01:18:04,VALID,1005.13,VALID,0,VALID,95.1321,VALID,0.100563,VALID,23.6044,VALID,348,VALID,0.237891,
2009-06-17, 01:19:04,VALID,1005.1,VALID,0,VALID,95.1321,VALID,0,VALID,23.5655,VALID,348,VALID,0.232812,
2009-06-17, 01:20:04,VALID,1005.13,VALID,0,VALID,95.1245,VALID,0.100563,VALID,23.5655,VALID,348,VALID,0,
2009-06-17, 01:21:04,VALID,1005.14,VALID,0,VALID,95.1474,VALID,0.100563,VALID,23.585,VALID,348,VALID,0,
2009-06-17, 01:22:04,VALID,1005.12,VALID,0,VALID,95.1627,VALID,0,VALID,23.6239,VALID,348,VALID,0.151953,
2009-06-17, 01:23:04,VALID,1005.12,VALID,0,VALID,95.1779,VALID,0,VALID,23.6434,VALID,348,VALID,0,
2009-06-17, 01:24:04,VALID,1005.13,VALID,0,VALID,95.1703,VALID,0.100563,VALID,23.6221,VALID,348,VALID,0,
2009-06-17, 01:25:04,VALID,1005.09,VALID,0,VALID,95.1779,VALID,0.100563,VALID,23.6239,VALID,348,VALID,0.202734,
2009-06-17, 01:26:04,VALID,1005.11,VALID,0,VALID,95.1779,VALID,0,VALID,23.5832,VALID,348,VALID,0.0527344,
2009-06-17, 01:27:04,VALID,1005.09,VALID,0,VALID,95.1627,VALID,0,VALID,23.5637,VALID,348,VALID,0.178906,
2009-06-17, 01:28:04,VALID,1005.12,VALID,0,VALID,95.155,VALID,0,VALID,23.546,VALID,348,VALID,0.262109,
2009-06-17, 01:29:04,VALID,1005.12,VALID,0,VALID,95.1398,VALID,0.100563,VALID,23.5071,VALID,348,VALID,0.497656,
2009-06-17, 01:30:04,VALID,1005.12,VALID,0,VALID,95.1474,VALID,0,VALID,23.4682,VALID,348,VALID,0.496094,
2009-06-17, 01:31:04,VALID,1005.13,VALID,0,VALID,95.1398,VALID,0,VALID,23.4487,VALID,348,VALID,0.482812,
2009-06-17, 01:32:04,VALID,1005.11,VALID,0,VALID,95.1398,VALID,0,VALID,23.4682,VALID,348,VALID,0.548828,
2009-06-17, 01:33:04,VALID,1005.12,VALID,0,VALID,95.155,VALID,0.100563,VALID,23.4487,VALID,348,VALID,0.445313,
2009-06-17, 01:34:04,VALID,1005.11,VALID,0,VALID,95.1398,VALID,0.100563,VALID,23.408,VALID,348,VALID,0.526953,
2009-06-17, 01:35:04,VALID,1005.1,VALID,0,VALID,95.155,VALID,0.100563,VALID,23.4275,VALID,348,VALID,0.477734,
2009-06-17, 01:36:04,VALID,1005.11,VALID,0,VALID,95.155,VALID,0.100563,VALID,23.4293,VALID,348,VALID,0.460547,
2009-06-17, 01:37:04,VALID,1005.11,VALID,0,VALID,95.155,VALID,0.100563,VALID,23.4293,VALID,348,VALID,0.369141,
2009-06-17, 01:38:04,VALID,1005.11,VALID,0,VALID,95.155,VALID,0.100563,VALID,23.4487,VALID,348,VALID,0.277734,
2009-06-17, 01:39:04,VALID,1005.12,VALID,0,VALID,95.1703,VALID,0,VALID,23.4098,VALID,348,VALID,0,
2009-06-17, 01:40:04,VALID,1005.13,VALID,0,VALID,95.2008,VALID,0.100563,VALID,23.4487,VALID,348,VALID,0.0886719,
2009-06-17, 01:41:04,VALID,1005.1,VALID,0,VALID,95.1932,VALID,0.100563,VALID,23.447,VALID,348,VALID,0.0078125,
2009-06-17, 01:42:04,VALID,1005.12,VALID,0,VALID,95.2161,VALID,0,VALID,23.4487,VALID,348,VALID,0,
2009-06-17, 01:43:04,VALID,1005.14,VALID,0,VALID,95.2161,VALID,0,VALID,23.4682,VALID,348,VALID,0,
2009-06-17, 01:44:04,VALID,1005.12,VALID,0,VALID,95.2008,VALID,0,VALID,23.4894,VALID,348,VALID,0.0890625,
2009-06-17, 01:45:04,VALID,1005.1,VALID,0,VALID,95.2084,VALID,0,VALID,23.5089,VALID,348,VALID,0.364844,
2009-06-17, 01:46:04,VALID,1005.09,VALID,0,VALID,95.2237,VALID,0,VALID,23.4682,VALID,348,VALID,0.314063,
2009-06-17, 01:47:04,VALID,1005.09,VALID,0,VALID,95.2237,VALID,0,VALID,23.4894,VALID,348,VALID,0.230469,
2009-06-17, 01:48:04,VALID,1005.09,VALID,0,VALID,95.2237,VALID,0,VALID,23.4894,VALID,348,VALID,0.257422,
2009-06-17, 01:49:04,VALID,1005.07,VALID,0,VALID,95.2389,VALID,0,VALID,23.4894,VALID,348,VALID,0.225781,
2009-06-17, 01:50:04,VALID,1005.07,VALID,0,VALID,95.2237,VALID,0,VALID,23.4505,VALID,348,VALID,0.394141,
2009-06-17, 01:51:04,VALID,1005.08,VALID,0,VALID,95.2237,VALID,0,VALID,23.4293,VALID,348,VALID,0.364453,
2009-06-17, 01:52:04,VALID,1005.04,VALID,0,VALID,95.2237,VALID,0,VALID,23.4505,VALID,348,VALID,0.233984,
2009-06-17, 01:53:04,VALID,1005.05,VALID,0,VALID,95.2161,VALID,0,VALID,23.4311,VALID,348,VALID,0,
2009-06-17, 01:54:04,VALID,1005.02,VALID,0,VALID,95.2313,VALID,0,VALID,23.4098,VALID,348,VALID,0,
2009-06-17, 01:55:04,VALID,1005.02,VALID,0,VALID,95.2542,VALID,0,VALID,23.4505,VALID,348,VALID,0,
2009-06-17, 01:56:04,VALID,1004.97,VALID,0,VALID,95.2466,VALID,0,VALID,23.4487,VALID,348,VALID,0,
2009-06-17, 01:57:04,VALID,1004.95,VALID,0,VALID,95.2389,VALID,0,VALID,23.4505,VALID,348,VALID,0,
2009-06-17, 01:58:04,VALID,1004.94,VALID,0,VALID,95.2466,VALID,0,VALID,23.4311,VALID,348,VALID,0,
2009-06-17, 01:59:04,VALID,1004.97,VALID,0,VALID,95.2389,VALID,0,VALID,23.4098,VALID,348,VALID,0,
2009-06-17, 02:00:04,VALID,1004.95,VALID,0,VALID,95.2542,VALID,0,VALID,23.4505,VALID,348,VALID,0,
2009-06-17, 02:01:04,VALID,1004.94,VALID,0,VALID,95.2695,VALID,0,VALID,23.4487,VALID,348,VALID,0,
2009-06-17, 02:02:04,VALID,1004.93,VALID,0,VALID,95.2771,VALID,0,VALID,23.4894,VALID,348,VALID,0,
2009-06-17, 02:03:04,VALID,1004.91,VALID,0,VALID,95.2771,VALID,0,VALID,23.5089,VALID,348,VALID,0,
2009-06-17, 02:04:04,VALID,1004.9,VALID,0,VALID,95.2771,VALID,0,VALID,23.5478,VALID,348,VALID,0,
2009-06-17, 02:05:04,VALID,1004.88,VALID,0,VALID,95.2847,VALID,0,VALID,23.5284,VALID,348,VALID,0,
2009-06-17, 02:06:04,VALID,1004.88,VALID,0,VALID,95.2771,VALID,0,VALID,23.5478,VALID,348,VALID,0,
2009-06-17, 02:07:04,VALID,1004.85,VALID,0,VALID,95.2847,VALID,0,VALID,23.5089,VALID,348,VALID,0,
2009-06-17, 02:08:04,VALID,1004.84,VALID,0,VALID,95.2618,VALID,0,VALID,23.47,VALID,348,VALID,0,
2009-06-17, 02:09:04,VALID,1004.88,VALID,0,VALID,95.2618,VALID,0,VALID,23.4311,VALID,348,VALID,0,
2009-06-17, 02:10:04,VALID,1004.85,VALID,0,VALID,95.2389,VALID,0,VALID,23.4328,VALID,348,VALID,0,
2009-06-17, 02:11:04,VALID,1004.83,VALID,0,VALID,95.2466,VALID,0,VALID,23.3532,VALID,348,VALID,0,
2009-06-17, 02:12:04,VALID,1004.86,VALID,0,VALID,95.2313,VALID,0,VALID,23.2931,VALID,348,VALID,0,
2009-06-17, 02:13:04,VALID,1004.87,VALID,0,VALID,95.2161,VALID,0,VALID,23.2718,VALID,348,VALID,0,
2009-06-17, 02:14:04,VALID,1004.88,VALID,0,VALID,95.2389,VALID,0.100563,VALID,23.2913,VALID,348,VALID,0,
2009-06-17, 02:15:04,VALID,1004.9,VALID,0,VALID,95.2847,VALID,0.100563,VALID,23.3514,VALID,348,VALID,0,
2009-06-17, 02:16:04,VALID,1004.91,VALID,0,VALID,95.2923,VALID,0.100563,VALID,23.4098,VALID,348,VALID,0,
2009-06-17, 02:17:04,VALID,1004.95,VALID,0,VALID,95.2923,VALID,0.100563,VALID,23.4311,VALID,348,VALID,0,
2009-06-17, 02:18:04,VALID,1004.95,VALID,0,VALID,95.2923,VALID,0,VALID,23.4311,VALID,348,VALID,0,
2009-06-17, 02:19:04,VALID,1004.96,VALID,0,VALID,95.3,VALID,0,VALID,23.3904,VALID,348,VALID,0,
2009-06-17, 02:20:04,VALID,1004.95,VALID,0,VALID,95.2847,VALID,0,VALID,23.3709,VALID,348,VALID,0,
2009-06-17, 02:21:04,VALID,1004.95,VALID,0,VALID,95.2771,VALID,0,VALID,23.3727,VALID,348,VALID,0,
2009-06-17, 02:22:04,VALID,1004.93,VALID,0,VALID,95.2847,VALID,0,VALID,23.3125,VALID,348,VALID,0.44375,
2009-06-17, 02:23:04,VALID,1004.98,VALID,0,VALID,95.2695,VALID,0,VALID,23.2736,VALID,348,VALID,0.439063,
2009-06-17, 02:24:04,VALID,1004.97,VALID,0,VALID,95.2695,VALID,0,VALID,23.2541,VALID,348,VALID,0.424219,
2009-06-17, 02:25:04,VALID,1004.96,VALID,0,VALID,95.2618,VALID,0,VALID,23.2152,VALID,348,VALID,0.352344,
2009-06-17, 02:26:04,VALID,1004.94,VALID,0,VALID,95.2847,VALID,0.100563,VALID,23.2736,VALID,348,VALID,0.208203,
2009-06-17, 02:27:04,VALID,1004.95,VALID,0,VALID,95.2847,VALID,0,VALID,23.2948,VALID,348,VALID,0.124609,
2009-06-17, 02:28:04,VALID,1004.92,VALID,0,VALID,95.3,VALID,0,VALID,23.2948,VALID,348,VALID,0.194922,
2009-06-17, 02:29:04,VALID,1004.9,VALID,0,VALID,95.3,VALID,0,VALID,23.2966,VALID,348,VALID,0,
2009-06-17, 02:30:04,VALID,1004.92,VALID,0,VALID,95.3,VALID,0,VALID,23.2364,VALID,348,VALID,0,
2009-06-17, 02:31:04,VALID,1004.89,VALID,0,VALID,95.2695,VALID,0,VALID,23.2187,VALID,348,VALID,0,
2009-06-17, 02:32:04,VALID,1004.9,VALID,0,VALID,95.2618,VALID,0,VALID,23.217,VALID,348,VALID,0,
2009-06-17, 02:33:04,VALID,1004.9,VALID,0,VALID,95.3,VALID,0,VALID,23.2754,VALID,348,VALID,0,
2009-06-17, 02:34:04,VALID,1004.9,VALID,0,VALID,95.3,VALID,0,VALID,23.2364,VALID,348,VALID,0.185547,
2009-06-17, 02:35:04,VALID,1004.85,VALID,0,VALID,95.3,VALID,0,VALID,23.2754,VALID,348,VALID,0.210547,
2009-06-17, 02:36:04,VALID,1004.86,VALID,0,VALID,95.3229,VALID,0,VALID,23.2754,VALID,348,VALID,0,
2009-06-17, 02:37:04,VALID,1004.84,VALID,0,VALID,95.3076,VALID,0,VALID,23.2754,VALID,348,VALID,0,
2009-06-17, 02:38:04,VALID,1004.83,VALID,0,VALID,95.3152,VALID,0,VALID,23.2559,VALID,348,VALID,0,
2009-06-17, 02:39:04,VALID,1004.79,VALID,0,VALID,95.2923,VALID,0,VALID,23.2364,VALID,348,VALID,0,
2009-06-17, 02:40:04,VALID,1004.79,VALID,0,VALID,95.2923,VALID,0,VALID,23.2559,VALID,348,VALID,0,
2009-06-17, 02:41:04,VALID,1004.82,VALID,0,VALID,95.3076,VALID,0,VALID,23.2152,VALID,348,VALID,0,
2009-06-17, 02:42:04,VALID,1004.82,VALID,0,VALID,95.3,VALID,0,VALID,23.2754,VALID,348,VALID,0,
2009-06-17, 02:43:04,VALID,1004.83,VALID,0,VALID,95.3152,VALID,0,VALID,23.3143,VALID,348,VALID,0,
2009-06-17, 02:44:04,VALID,1004.83,VALID,0,VALID,95.3152,VALID,0,VALID,23.3532,VALID,348,VALID,0.0828125,
2009-06-17, 02:45:04,VALID,1004.81,VALID,0,VALID,95.3305,VALID,0,VALID,23.3355,VALID,348,VALID,0.371094,
2009-06-17, 02:46:04,VALID,1004.79,VALID,0,VALID,95.3229,VALID,0,VALID,23.3337,VALID,348,VALID,0.313672,
2009-06-17, 02:47:04,VALID,1004.77,VALID,0,VALID,95.3381,VALID,0,VALID,23.3337,VALID,348,VALID,0.230469,
2009-06-17, 02:48:04,VALID,1004.79,VALID,0,VALID,95.3152,VALID,0,VALID,23.2931,VALID,348,VALID,0.108203,
2009-06-17, 02:49:04,VALID,1004.74,VALID,0,VALID,95.3229,VALID,0,VALID,23.2948,VALID,348,VALID,0,
2009-06-17, 02:50:04,VALID,1004.72,VALID,0,VALID,95.3229,VALID,0,VALID,23.2931,VALID,348,VALID,0.120703,
2009-06-17, 02:51:04,VALID,1004.77,VALID,0,VALID,95.3457,VALID,0,VALID,23.332,VALID,348,VALID,0.314063,
2009-06-17, 02:52:04,VALID,1004.76,VALID,0,VALID,95.3534,VALID,0,VALID,23.3727,VALID,348,VALID,0.437891,
2009-06-17, 02:53:04,VALID,1004.73,VALID,0,VALID,95.3534,VALID,0,VALID,23.3727,VALID,348,VALID,0.366406,
2009-06-17, 02:54:04,VALID,1004.75,VALID,0,VALID,95.3534,VALID,0,VALID,23.2541,VALID,348,VALID,0.439844,
2009-06-17, 02:55:04,VALID,1004.72,VALID,0,VALID,95.3381,VALID,0,VALID,23.217,VALID,348,VALID,0.328906,
2009-06-17, 02:56:04,VALID,1004.72,VALID,0,VALID,95.3152,VALID,0,VALID,23.178,VALID,348,VALID,0.222656,
2009-06-17, 02:57:04,VALID,1004.73,VALID,0,VALID,95.3,VALID,0,VALID,23.1374,VALID,348,VALID,0.230469,
2009-06-17, 02:58:04,VALID,1004.71,VALID,0,VALID,95.3,VALID,0,VALID,23.0984,VALID,348,VALID,0.316406,
2009-06-17, 02:59:04,VALID,1004.72,VALID,0,VALID,95.3152,VALID,0,VALID,23.1586,VALID,348,VALID,0.365234,
2009-06-17, 03:00:04,VALID,1004.7,VALID,0,VALID,95.3229,VALID,0,VALID,23.1374,VALID,348,VALID,0.283203,
2009-06-17, 03:01:04,VALID,1004.71,VALID,0,VALID,95.3305,VALID,0,VALID,23.1374,VALID,348,VALID,0.250391,
2009-06-17, 03:02:04,VALID,1004.7,VALID,0,VALID,95.3229,VALID,0,VALID,23.1179,VALID,348,VALID,0.254687,
2009-06-17, 03:03:04,VALID,1004.7,VALID,0,VALID,95.3305,VALID,0,VALID,23.1391,VALID,348,VALID,0.261328,
2009-06-17, 03:04:04,VALID,1004.75,VALID,0,VALID,95.3381,VALID,0,VALID,23.1197,VALID,348,VALID,0.179688,
2009-06-17, 03:05:04,VALID,1004.78,VALID,0,VALID,95.3305,VALID,0,VALID,23.0595,VALID,348,VALID,0.192969,
2009-06-17, 03:06:04,VALID,1004.79,VALID,0,VALID,95.3305,VALID,0,VALID,23.0595,VALID,348,VALID,0.255078,
2009-06-17, 03:07:04,VALID,1004.79,VALID,0,VALID,95.3152,VALID,0,VALID,23.1002,VALID,348,VALID,0.217187,
2009-06-17, 03:08:04,VALID,1004.78,VALID,0,VALID,95.3686,VALID,0,VALID,23.1568,VALID,348,VALID,0.124609,
2009-06-17, 03:09:04,VALID,1004.81,VALID,0,VALID,95.3915,VALID,0.100563,VALID,23.2152,VALID,348,VALID,0.122266,
2009-06-17, 03:10:04,VALID,1004.79,VALID,0,VALID,95.4144,VALID,0,VALID,23.2541,VALID,348,VALID,0,
2009-06-17, 03:11:04,VALID,1004.79,VALID,0,VALID,95.3839,VALID,0,VALID,23.2134,VALID,348,VALID,0.159375,
2009-06-17, 03:12:04,VALID,1004.77,VALID,0,VALID,95.3839,VALID,0,VALID,23.2152,VALID,348,VALID,0.207422,
2009-06-17, 03:13:04,VALID,1004.77,VALID,0,VALID,95.3839,VALID,0,VALID,23.2152,VALID,348,VALID,0,
2009-06-17, 03:14:04,VALID,1004.73,VALID,0,VALID,95.3839,VALID,0,VALID,23.2347,VALID,348,VALID,0,
2009-06-17, 03:15:04,VALID,1004.73,VALID,0,VALID,95.3763,VALID,0,VALID,23.2736,VALID,348,VALID,0,
2009-06-17, 03:16:04,VALID,1004.74,VALID,0,VALID,95.3763,VALID,0,VALID,23.2948,VALID,348,VALID,0,
2009-06-17, 03:17:04,VALID,1004.72,VALID,0,VALID,95.3991,VALID,0,VALID,23.2718,VALID,348,VALID,0,
2009-06-17, 03:18:04,VALID,1004.73,VALID,0,VALID,95.3839,VALID,0,VALID,23.332,VALID,348,VALID,0,
2009-06-17, 03:19:04,VALID,1004.72,VALID,0,VALID,95.4068,VALID,0,VALID,23.332,VALID,348,VALID,0,
2009-06-17, 03:20:04,VALID,1004.71,VALID,0,VALID,95.3991,VALID,0,VALID,23.332,VALID,348,VALID,0,
2009-06-17, 03:21:04,VALID,1004.73,VALID,0,VALID,95.3686,VALID,0,VALID,23.3337,VALID,348,VALID,0,
2009-06-17, 03:22:04,VALID,1004.71,VALID,0,VALID,95.3915,VALID,0,VALID,23.3143,VALID,348,VALID,0,
2009-06-17, 03:23:04,VALID,1004.7,VALID,0,VALID,95.3763,VALID,0,VALID,23.2541,VALID,348,VALID,0.558984,
2009-06-17, 03:24:04,VALID,1004.7,VALID,0,VALID,95.3991,VALID,0,VALID,23.2736,VALID,348,VALID,0.582422,
2009-06-17, 03:25:04,VALID,1004.68,VALID,0,VALID,95.4068,VALID,0,VALID,23.2754,VALID,348,VALID,0.554688,
2009-06-17, 03:26:04,VALID,1004.71,VALID,0,VALID,95.3839,VALID,0,VALID,23.2364,VALID,348,VALID,0.54375,
2009-06-17, 03:27:04,VALID,1004.69,VALID,0,VALID,95.3915,VALID,0,VALID,23.1957,VALID,348,VALID,0.4625,
2009-06-17, 03:28:04,VALID,1004.69,VALID,0,VALID,95.3991,VALID,0,VALID,23.1957,VALID,348,VALID,0.430859,
2009-06-17, 03:29:04,VALID,1004.7,VALID,0,VALID,95.3915,VALID,0,VALID,23.1763,VALID,348,VALID,0.444141,
2009-06-17, 03:30:04,VALID,1004.71,VALID,0,VALID,95.3915,VALID,0,VALID,23.1568,VALID,348,VALID,0.553125,
2009-06-17, 03:31:04,VALID,1004.7,VALID,0,VALID,95.3839,VALID,0,VALID,23.1568,VALID,348,VALID,0.520312,
2009-06-17, 03:32:04,VALID,1004.73,VALID,0,VALID,95.3991,VALID,0,VALID,23.1391,VALID,348,VALID,0.549609,
2009-06-17, 03:33:04,VALID,1004.71,VALID,0,VALID,95.3991,VALID,0,VALID,23.1179,VALID,348,VALID,0.474219,
2009-06-17, 03:34:04,VALID,1004.75,VALID,0,VALID,95.3915,VALID,0,VALID,23.1179,VALID,348,VALID,0.461719,
2009-06-17, 03:35:04,VALID,1004.76,VALID,0,VALID,95.3839,VALID,0,VALID,23.1586,VALID,348,VALID,0.488281,
2009-06-17, 03:36:04,VALID,1004.76,VALID,0,VALID,95.3991,VALID,0,VALID,23.1568,VALID,348,VALID,0.426172,
2009-06-17, 03:37:04,VALID,1004.8,VALID,0,VALID,95.3991,VALID,0,VALID,23.1586,VALID,348,VALID,0.387891,
2009-06-17, 03:38:04,VALID,1004.81,VALID,0,VALID,95.4144,VALID,0,VALID,23.1568,VALID,348,VALID,0.344531,
2009-06-17, 03:39:04,VALID,1004.85,VALID,0,VALID,95.4144,VALID,0,VALID,23.1957,VALID,348,VALID,0.158594,
2009-06-17, 03:40:04,VALID,1004.85,VALID,0,VALID,95.4373,VALID,0,VALID,23.2347,VALID,348,VALID,0.154297,
2009-06-17, 03:41:04,VALID,1004.85,VALID,0,VALID,95.4297,VALID,0,VALID,23.2541,VALID,348,VALID,0.208984,
2009-06-17, 03:42:04,VALID,1004.9,VALID,0,VALID,95.4297,VALID,0,VALID,23.2559,VALID,348,VALID,0.390234,
2009-06-17, 03:43:04,VALID,1004.86,VALID,0,VALID,95.422,VALID,0,VALID,23.2347,VALID,348,VALID,0.259766,
2009-06-17, 03:44:04,VALID,1004.88,VALID,0,VALID,95.422,VALID,0,VALID,23.1957,VALID,348,VALID,0.244141,
2009-06-17, 03:45:04,VALID,1004.89,VALID,0,VALID,95.4373,VALID,0,VALID,23.1975,VALID,348,VALID,0.325391,
2009-06-17, 03:46:04,VALID,1004.92,VALID,0,VALID,95.422,VALID,0,VALID,23.1568,VALID,348,VALID,0.433594,
2009-06-17, 03:47:04,VALID,1004.92,VALID,0,VALID,95.4068,VALID,0,VALID,23.1179,VALID,348,VALID,0.445703,